Regional Weather Roundup
Issued by NWS

Home | Current Version | Previous Version | Text Only | Print | Product List | Glossary On
Versions: 1 2 3 4 5 6 7 8 9 10 11 12 13 14 15 16 17 18 19 20 21 22 23 24 25 26 27 28 29 30 31 32 33 34 35 36 37 38 39 40 41 42 43 44 45 46 47 48 49 50
000
ASUS44 KLIX 232101
RWRLA
LOUISIANA WEATHER ROUNDUP
NATIONAL WEATHER SERVICE NEW ORLEANS LA
300 PM CST SUN NOV 23 2014

NOTE: "FAIR" INDICATES FEW OR NO CLOUDS BELOW 12,000 FEET WITH NO
      SIGNIFICANT WEATHER AND/OR OBSTRUCTIONS TO VISIBILITY.
      SKY/WX - SKY CONDITION AND SIGNIFICANT WEATHER.
      TMP - AIR TEMPERATURE.    DP   - DEWPOINT TEMPERATURE.
      RH  - RELATIVE HUMIDITY.  PRES - PRESSURE.
      HX  - HEAT INDEX.         WCI  - WIND CHILL INDEX.

*  THESE STATIONS ARE NOT NWS OR FAA STATIONS AND ARE NOT UNDER
   NWS QUALITY CONTROL.

LAZ040-048-061>063-065-066-069-232200-
SOUTHEAST LOUISIANA

CITY           SKY/WX    TMP DP  RH WIND       PRES   REMARKS
N.O. AUDUBON   NOT AVBL
N.O. INTL ARPT MOSUNNY   75  58  55 SW20      29.64S
N.O. LAKEFRONT MOSUNNY   74  59  59 SW15G29   29.64F
N.O. DOWNTOWN* FAIR      75  59  57 S14G21    29.66S
SLIDELL        SUNNY     73  59  61 SW10G21   29.63S
BATON ROUGE    PTSUNNY   75  57  53 SW20G29   29.59F
BOOTHVILLE     MOSUNNY   70  65  84 SW16G24   29.69S
BELLE CHASSE   MOSUNNY   75  60  59 SW13G25   29.65F
BOGALUSA*        N/A     75  58  54 SW25G33   29.62S
NEW ROADS*     FAIR      74  55  52 SW17G24   29.59S
GONZALES*      NOT AVBL
HAMMOND*       PTSUNNY   75  57  53 SW12G28   29.62S
HOUMA*         MOSUNNY   75  64  69 SW17G25   29.66S
PORT FOURCHON* CLEAR     73  66  78 SW15G23   29.72R

$$

LAZ041-044-053-054-232200-
SOUTHWEST LOUISIANA

CITY           SKY/WX    TMP DP  RH WIND       PRES   REMARKS
LAKE CHARLES   SUNNY     71  59  65 SW14G25   29.57S
LAFAYETTE      MOSUNNY   73  62  68 SW18G31   29.60F
PATTERSON      MOSUNNY   73  64  73 SW17G28   29.65F
SALT POINT       N/A     71  62  73 SW7       29.63F
NEW IBERIA     SUNNY     75  62  64 SW14G21   29.61F
CHENAULT AIRPK NOT AVBL

$$

LAZ027-028-232200-
CENTRAL LOUISIANA

CITY           SKY/WX    TMP DP  RH WIND       PRES   REMARKS
FORT POLK      SUNNY     73  59  62 S16G23    29.52S
ALEXANDRIA INT SUNNY     72  60  66 S14       29.51S
ALEXANDRIA     SUNNY     73  58  59 SW14G25   29.53S

$$

LAZ001-002-232200-
NORTHWEST LOUISIANA

CITY           SKY/WX    TMP DP  RH WIND       PRES   REMARKS
SHREVEPORT     SUNNY     73  58  59 S15G21    29.42F
BARKSDALE AFB  SUNNY     73  59  61 S15       29.42F
DTN SHREVEPORT SUNNY     72  56  57 S15       29.41F

$$

LAZ014-016-232200-
NORTHEAST LOUISIANA

CITY           SKY/WX    TMP DP  RH WIND       PRES   REMARKS
MONROE         PTSUNNY   68  61  78 SW14G22   29.47S
TALLULAH       PTSUNNY   69  59  70 SW10G18   29.49S

$$




USA.gov is the U.S. government's official web portal to all federal, state and local government web resources and services.